Location: Beuerbach
(48.1459°N, 10.9174°E)
Time: 21:34:44
(UTC+00:00)

SL-16 R/B - Pass Details

Date: 13 August 2024
Orbit: 842 x 845 km, 71.0° (Epoch: 07 September)

Event Time Altitude Azimuth Distance (km) Brightness Sun altitude
Exits shadow 01:55:44 - 285° (WNW) 3,360 5.1 -18.5°
Reaches altitude 10° 02:00:42 10° 324° (NW) 2,475 4.8 -18.0°
Maximum altitude 02:01:43 10° 334° (NNW) 2,444 4.9 -17.9°
Drops below altitude 10° 02:02:44 10° 345° (NNW) 2,476 5.1 -17.8°
Sets 02:07:54 0° 24° (NNE) 3,416 6.8 -17.2°
